sat.trackr.live / text

‹ back to catalog

STARLINK-34281

NORAD 64260 · 2025-120E

PAYLOAD ACTIVE UNKNOWN

§ Identity

Operator
Country
US
Launch date
2025-06-04
Launch site
AFWTR
Launch vehicle
Mass (kg)
RCS (m²)

Purposes: comms

External: N2YO · Heavens-Above · Gunter

§ Orbital elements

Epoch: 2026-09-20T08:48:27.167904Z

Period
93.85 min
Inclination
53.1592°
Eccentricity
0.0001181
Mean motion
15.34397539 rev/d
Perigee alt
461.9 km
Apogee alt
463.5 km
Semi-major
6,840.8 km
B*
4.9311e-4
RAAN
286.6502°
Arg perigee
71.7244°
Mean anomaly
288.3887°
Rev number
7,375

§ Raw data

STARLINK-342811 64260U 25120E   26263.36698111  .00016319  00000+0  49311-3 0  99922 64260  53.1592 286.6502 0001181  71.7244 288.3887 15.34397539 73755

JSON: /api/v1/satellites/64260 · /tle

For live sub-satellite position, see the globe view (requires WebGL).

§ Visibility from observer

Set your observer location to see the next 7 days of passes ≥ 10°. The values pass through the URL so the page stays shareable.

No JS? Fill the form by hand. The geolocation button needs JavaScript.